Home > Weather > Santa Barbara > Past weeks

Flag for USA Past Weather in Santa Barbara, California, USA — Yesterday and Last 2 Weeks

Now
65 °F

Sunny.


Feels Like: 65 °F
Forecast: 54 / 68 °F
Wind: 12 mph from West

Location: Santa Barbara Municipal Airport

Current Time: May 27, 2016 at 7:15:02 PM

Latest Report: May 27, 2016 at 5:53 PM


Visibility: 10 mi

Pressure: 29.83 "Hg

Humidity: 63%

Dew Point: 52 °F

Location of Santa BarbaraLocation

Past Weather in Santa Barbara — Graph

°F

Santa Barbara Temperature Yesterday

Maximum temperature yesterday: 73 °F (at 4:53 PM)
Minimum temperature yesterday: 51 °F (at 4:53 AM)
Average temperature yesterday: 62 °F

High & Low Weather Summary for the Past Weeks

 TemperatureHumidityPressure
High73 °F (May 26, 4:53 PM)97% (May 13, 4:53 AM)30.08 "Hg (May 13, 4:53 AM)
Low45 °F (May 21, 5:53 AM)36% (May 22, 6:53 PM)29.79 "Hg (May 19, 7:53 PM)
Average60 °F74%29.95 "Hg
* Reported May 12 5:53 PM — May 27 5:53 PM, Santa Barbara, Weather by CustomWeather, © 2016

Note: Actual official high and low records may vary slightly from our data, if they occured in-between our weather recording intervals... More about our weather records

Advertising

Santa Barbara Weather History for the Previous 24 Hours

Scroll right to see more
 ConditionsComfort  
Time TempWeatherWind HumidityBarometerVisibility
5:53 PM
Fri, May 27
65 °FSunny.12 mph63%29.83 "Hg10 mi
4:53 PM67 °FSunny.10 mph59%29.85 "Hg10 mi
3:53 PM66 °FSunny.12 mph63%29.87 "Hg10 mi
2:53 PM67 °FSunny.8 mph63%29.88 "Hg10 mi
1:53 PM67 °FSunny.9 mph63%29.90 "Hg10 mi
12:53 PM65 °FSunny.6 mph70%29.92 "Hg10 mi
11:53 AM66 °FSunny.8 mph68%29.93 "Hg10 mi
10:53 AM64 °FScattered clouds.8 mph70%29.94 "Hg10 mi
9:53 AM61 °FSunny.8 mph78%29.96 "Hg10 mi
8:53 AM61 °FPassing clouds.8 mph78%29.96 "Hg10 mi
7:53 AM60 °FPassing clouds.6 mph80%29.96 "Hg8 mi
6:53 AM56 °FSunny.No wind84%29.95 "Hg10 mi
5:53 AM53 °FClear.No wind93%29.93 "Hg9 mi
4:53 AM56 °FClear.No wind90%29.93 "Hg9 mi
3:53 AM57 °FClear.5 mph90%29.93 "Hg8 mi
2:53 AM58 °FClear.7 mph87%29.94 "Hg9 mi
1:53 AM58 °FClear.7 mph87%29.94 "Hg9 mi
12:53 AM58 °FClear.5 mph87%29.94 "Hg9 mi
11:53 PM
Thu, May 26
59 °FClear.6 mph87%29.94 "Hg10 mi
10:53 PM60 °FClear.5 mph80%29.94 "Hg10 mi
9:53 PM59 °FClear.3 mph84%29.94 "Hg10 mi
8:53 PM60 °FSunny.9 mph86%29.93 "Hg10 mi
7:53 PM62 °FSunny.13 mph78%29.92 "Hg10 mi
Weather by CustomWeather, © 2016

See weather overviewHow to use our weather pages